Tracking 23757 objects as of 25-Oct-2021
HD Live streaming from Space Station
objects crossing your sky now

INTELSAT 804

Track INTELSAT 804 now!
INTELSAT 804 is classified as:


NORAD ID: 25110
Int'l Code: 1997-083A
Perigee: 35,779.9 km
Apogee: 35,810.3 km
Inclination: 11.4 °
Period: 1,436.2 minutes
Semi major axis: 42166 km
RCS: 10.0118 m2 (large)
Launch date: December 21, 1997
Source: International Telecommunications Satellite Organization (ITSO)
Launch site: FRENCH GUIANA (FRGUI)
aabbcc
Your satellite tracking list
Your tracking list is empty




NASA's NSSDC Master Catalog

Two Line Element Set (TLE):
1 25110U 97083A   21297.83957289 -.00000109  00000-0  00000-0 0  9999
2 25110  11.4447  29.1017 0003610  31.4088  76.6121  1.00266920 87336
Source of the keplerian elements: AFSPC